• In Uzbekistan
  • List of Countries
  • For 7 days
  • Water Temperature
  • Satellite Maps
  • Weather Map
  • Weather Widgets
  • user-avatar
    Login

    Hourly Weather Mingachevir

    Today, 24 April, Monday

    Time Temperature Precipitation Wind Pressure Humidity
    00:00 +14°C° 0 mm 1 mps 745 mmHg 83%
    01:00 +13°C° 0 mm 3 mps 745 mmHg 80%
    02:00 +13°C° 0 mm 4 mps 745 mmHg 78%
    03:00 +12°C° 0 mm 9 mps 746 mmHg 74%
    04:00 +12°C° 0 mm 9 mps 746 mmHg 66%
    05:00 +13°C° 0 mm 8 mps 746 mmHg 59%
    06:00 +13°C° 0 mm 8 mps 747 mmHg 51%
    07:00 +15°C° 0 mm 8 mps 747 mmHg 46%
    08:00 +17°C° 0 mm 9 mps 747 mmHg 42%
    09:00 +21°C° 0 mm 8 mps 747 mmHg 36%
    10:00 +22°C° 0 mm 7 mps 747 mmHg 35%
    11:00 +22°C° 0 mm 7 mps 748 mmHg 34%
    12:00 +23°C° 0 mm 6 mps 748 mmHg 33%
    13:00 +23°C° 0.2 mm 6 mps 748 mmHg 35%
    14:00 +22°C° 0.2 mm 5 mps 748 mmHg 37%
    15:00 +22°C° 0.2 mm 5 mps 748 mmHg 39%
    16:00 +21°C° 0.1 mm 4 mps 749 mmHg 42%
    17:00 +20°C° 0.1 mm 4 mps 750 mmHg 44%
    18:00 +19°C° 0.1 mm 3 mps 751 mmHg 47%
    19:00 +18°C° 0 mm 3 mps 752 mmHg 48%
    20:00 +16°C° 0 mm 3 mps 752 mmHg 50%
    21:00 +15°C° 0 mm 2 mps 753 mmHg 51%
    22:00 +14°C° 0 mm 2 mps 754 mmHg 53%
    23:00 +14°C° 0 mm 2 mps 754 mmHg 55%

    Tomorrow, 25 April, Tuesday

    Time Temperature Precipitation Wind Pressure Humidity
    00:00 +13°C° 0 mm 1 mps 754 mmHg 57%
    01:00 +12°C° 0 mm 1 mps 754 mmHg 58%
    02:00 +11°C° 0 mm 1 mps 755 mmHg 59%
    03:00 +10°C° 0 mm 1 mps 755 mmHg 60%
    04:00 +11°C° 0 mm 1 mps 755 mmHg 59%
    05:00 +10°C° 0 mm 2 mps 755 mmHg 58%
    06:00 +12°C° 0 mm 2 mps 756 mmHg 57%
    07:00 +13°C° 0 mm 3 mps 756 mmHg 49%
    08:00 +15°C° 0 mm 4 mps 756 mmHg 42%
    09:00 +17°C° 0 mm 5 mps 756 mmHg 34%
    10:00 +18°C° 0 mm 4 mps 756 mmHg 32%
    11:00 +19°C° 0 mm 4 mps 756 mmHg 31%
    12:00 +20°C° 0 mm 4 mps 756 mmHg 29%
    13:00 +20°C° 0 mm 4 mps 756 mmHg 29%
    14:00 +21°C° 0 mm 3 mps 756 mmHg 30%
    15:00 +21°C° 0 mm 3 mps 756 mmHg 30%
    16:00 +20°C° 0 mm 3 mps 757 mmHg 33%
    17:00 +19°C° 0 mm 4 mps 758 mmHg 37%
    18:00 +17°C° 0 mm 4 mps 758 mmHg 40%
    19:00 +16°C° 0 mm 3 mps 760 mmHg 43%
    20:00 +14°C° 0 mm 3 mps 761 mmHg 47%
    21:00 +12°C° 0 mm 3 mps 762 mmHg 51%
    22:00 +11°C° 0 mm 3 mps 762 mmHg 57%
    23:00 +10°C° 0 mm 2 mps 762 mmHg 62%

    Day after tomorrow, 26 April, Wednesday

    Time Temperature Precipitation Wind Pressure Humidity
    00:00 +9°C° 0 mm 2 mps 763 mmHg 68%
    01:00 +9°C° 0 mm 2 mps 763 mmHg 69%
    02:00 +9°C° 0 mm 2 mps 763 mmHg 71%
    03:00 +9°C° 0 mm 1 mps 763 mmHg 72%
    04:00 +9°C° 0 mm 2 mps 764 mmHg 69%
    05:00 +9°C° 0 mm 2 mps 764 mmHg 67%
    06:00 +10°C° 0 mm 2 mps 765 mmHg 64%
    07:00 +11°C° 0 mm 3 mps 765 mmHg 61%
    08:00 +11°C° 0 mm 4 mps 765 mmHg 57%
    09:00 +12°C° 0 mm 5 mps 765 mmHg 54%
    10:00 +13°C° 0 mm 5 mps 764 mmHg 50%
    11:00 +15°C° 0 mm 5 mps 764 mmHg 46%
    12:00 +16°C° 0 mm 5 mps 764 mmHg 42%
    13:00 +16°C° 0 mm 5 mps 764 mmHg 40%
    14:00 +17°C° 0 mm 6 mps 763 mmHg 38%
    15:00 +19°C° 0 mm 6 mps 763 mmHg 37%
    16:00 +17°C° 0 mm 5 mps 763 mmHg 40%
    17:00 +16°C° 0 mm 5 mps 763 mmHg 43%
    18:00 +15°C° 0 mm 4 mps 763 mmHg 46%
    19:00 +13°C° 0 mm 4 mps 764 mmHg 52%
    20:00 +12°C° 0 mm 4 mps 764 mmHg 57%
    21:00 +10°C° 0 mm 3 mps 765 mmHg 63%
    22:00 +9°C° 0 mm 3 mps 765 mmHg 65%
    23:00 +9°C° 0 mm 2 mps 765 mmHg 68%

    27 April, Thursday

    Time Temperature Precipitation Wind Pressure Humidity
    00:00 +8°C° 0 mm 2 mps 765 mmHg 70%
    01:00 +7°C° 0 mm 2 mps 764 mmHg 71%
    02:00 +8°C° 0 mm 1 mps 764 mmHg 73%
    03:00 +7°C° 0 mm 1 mps 764 mmHg 74%
    04:00 +8°C° 0 mm 1 mps 764 mmHg 72%
    05:00 +9°C° 0 mm 1 mps 764 mmHg 69%
    06:00 +10°C° 0 mm 1 mps 764 mmHg 66%
    07:00 +12°C° 0 mm 1 mps 764 mmHg 58%
    08:00 +14°C° 0 mm 2 mps 764 mmHg 50%
    09:00 +14°C° 0 mm 3 mps 763 mmHg 42%
    10:00 +17°C° 0 mm 3 mps 763 mmHg 40%
    11:00 +18°C° 0 mm 4 mps 762 mmHg 38%
    12:00 +19°C° 0 mm 4 mps 762 mmHg 36%
    13:00 +20°C° 0 mm 4 mps 761 mmHg 37%
    14:00 +20°C° 0 mm 5 mps 761 mmHg 38%
    15:00 +20°C° 0 mm 5 mps 760 mmHg 39%
    16:00 +19°C° 0 mm 5 mps 761 mmHg 42%
    17:00 +19°C° 0 mm 4 mps 761 mmHg 46%
    18:00 +18°C° 0 mm 3 mps 761 mmHg 50%
    19:00 +16°C° 0 mm 3 mps 762 mmHg 54%
    20:00 +13°C° 0 mm 3 mps 762 mmHg 58%
    21:00 +12°C° 0 mm 3 mps 763 mmHg 62%
    22:00 +12°C° 0 mm 2 mps 762 mmHg 62%
    23:00 +12°C° 0 mm 2 mps 762 mmHg 62%

    28 April, Friday

    Time Temperature Precipitation Wind Pressure Humidity
    00:00 +12°C° 0 mm 2 mps 762 mmHg 62%
    01:00 +11°C° 0 mm 1 mps 762 mmHg 63%
    02:00 +11°C° 0 mm 1 mps 762 mmHg 65%
    03:00 +10°C° 0 mm 1 mps 761 mmHg 66%
    04:00 +11°C° 0 mm 1 mps 761 mmHg 64%
    05:00 +12°C° 0 mm 1 mps 761 mmHg 62%
    06:00 +13°C° 0 mm 1 mps 761 mmHg 60%
    07:00 +15°C° 0 mm 1 mps 761 mmHg 55%
    08:00 +16°C° 0 mm 1 mps 761 mmHg 50%
    09:00 +18°C° 0 mm 1 mps 760 mmHg 44%
    10:00 +19°C° 0 mm 2 mps 760 mmHg 42%
    11:00 +20°C° 0 mm 2 mps 759 mmHg 40%
    12:00 +21°C° 0 mm 2 mps 758 mmHg 38%
    13:00 +23°C° 0 mm 2 mps 758 mmHg 38%
    14:00 +23°C° 0 mm 2 mps 758 mmHg 37%
    15:00 +24°C° 0 mm 2 mps 757 mmHg 36%
    16:00 +23°C° 0 mm 2 mps 757 mmHg 40%
    17:00 +21°C° 0 mm 2 mps 757 mmHg 44%
    18:00 +20°C° 0 mm 2 mps 757 mmHg 48%
    19:00 +18°C° 0 mm 2 mps 758 mmHg 52%
    20:00 +16°C° 0 mm 2 mps 758 mmHg 55%
    21:00 +15°C° 0 mm 2 mps 758 mmHg 59%
    22:00 +14°C° 0 mm 1 mps 758 mmHg 60%
    23:00 +13°C° 0 mm 1 mps 758 mmHg 62%

    29 April, Saturday

    Time Temperature Precipitation Wind Pressure Humidity
    00:00 +12°C° 0 mm 1 mps 757 mmHg 63%
    01:00 +12°C° 0 mm 1 mps 757 mmHg 64%
    02:00 +12°C° 0 mm 1 mps 757 mmHg 64%
    03:00 +12°C° 0 mm 1 mps 756 mmHg 64%
    04:00 +12°C° 0 mm 1 mps 756 mmHg 63%
    05:00 +13°C° 0 mm 1 mps 756 mmHg 62%
    06:00 +14°C° 0 mm 2 mps 756 mmHg 61%
    07:00 +17°C° 0 mm 2 mps 756 mmHg 54%
    08:00 +19°C° 0 mm 2 mps 756 mmHg 46%
    09:00 +21°C° 0 mm 2 mps 755 mmHg 39%
    10:00 +23°C° 0 mm 2 mps 755 mmHg 37%
    11:00 +25°C° 0 mm 2 mps 754 mmHg 35%
    12:00 +26°C° 0 mm 1 mps 754 mmHg 33%
    13:00 +27°C° 0 mm 1 mps 753 mmHg 32%
    14:00 +27°C° 0 mm 1 mps 753 mmHg 31%
    15:00 +28°C° 0 mm 1 mps 752 mmHg 31%
    16:00 +27°C° 0 mm 1 mps 752 mmHg 36%
    17:00 +25°C° 0 mm 1 mps 753 mmHg 40%
    18:00 +24°C° 0 mm 1 mps 753 mmHg 45%
    19:00 +22°C° 0 mm 1 mps 753 mmHg 48%
    20:00 +19°C° 0 mm 2 mps 754 mmHg 51%
    21:00 +17°C° 0 mm 2 mps 754 mmHg 54%
    22:00 +17°C° 0 mm 2 mps 754 mmHg 55%
    23:00 +16°C° 0 mm 1 mps 754 mmHg 57%
    Show more